DELTA 1 DEB, 13537

Orbit data source: Space-Track

DELTA 1 DEB, 13537 is space debris in SSO originally from a launch on Thu, 29 Jul 1976 UTC launched from the Air Force Western Test Range (AFWTR). Debris objects in space refer to the collection of defunct objects orbiting the Earth. Examples of debris include non-operational satellites, rocket bodies, and fragments generated from explosions, collisions, or faulty payload assembly.

Loading next visibility...
Identifier
13537, 1976-077EK
Orbit
SSO
Country
Flag of USUS
Related business
Manufacturer
Unknown
Mission
Spacecraft
Bus & Motor
Unknown
Mass
Unknown
Launch date (UTC)
1976-07-29 (49 years ago)
Launch vehicle
Unknown
Launch site
Air Force Western Test Range (AFWTR)
Object type
Payload
Rocket body
Debris
Shape & HBR
Unknown shape, 0.1 m
Radar Cross Section
Small (<0.1 m²)

Expand to show TLE details & history
Last TLE update: 20 hours ago

TLE from 20 hours ago
0 DELTA 1 DEB
1 13537U 76077EK  25302.86438576  .00000027  00000-0  63503-3 0  9994
2 13537 102.5276 282.6157 0075713 342.0429  49.5216 12.27229695105011
Epoch: 2025-10-29T20:44Z
TLE epoch observation values (Epoch: 2025-10-29T20:44:42.929Z)
Latitude
31.42712°
Longitude
-74.75974°
Altitude
1,526.107 km
Speed
7.123 km/s
True Right ascension
18h 19m 24s
True Declination
31° 17' 21"
Sunlit
Object was in daylight at epoch
Visualization orbit readout
Latitude
Unknown
Longitude
Unknown
Altitude
Unknown
Speed
Unknown
Apparent Right ascension
Unknown
Apparent Declination
Unknown
Sunlit
N/A
Visualization observer readout
Local Sidereal Time
11:53:28
Azimuth
Unknown
Elevation
Unknown
Doppler factor
Unknown
Orbital elements
Apogee altitude
1,618.923 km
Perigee altitude
1,498.737 km
Semi-major axis
7,936.967 km
Eccentricity
0.00757
Inclination
102.5276°
RAAN
282.6157°
Arg. of periapsis
342.0429°
True anomaly
50.18561°
Mean anomaly
49.5216°
Eccentric anomaly
49.8532°
Mean motion
3.06946 °/min
Orbital period
117.28 mins
BSTAR
0.00063503
Loading maneuver chart data...
Computing Atmospheric mass density...
Loading historical data...
Loading historical data...
Loading historical data...
Loading historical data...
Loading historical data...
Loading historical data...
Loading historical data...

Documentation

Showing up to 5 results
|